Вернуться в каталог

KUIPER-00220

АктивенСвязьLEO
NORAD 67781·PAYLOAD·🇺🇸 United States

Запущен Feb 12, 2026 с Guiana Space Centre

Loading…

Ближайшие Пролёты (ближайшие 24 часа)

TLE

СвежийSource: CelesTrak SupGP

Эпоха: Sep 14, 2026, 23:36 UTC

1 67781C 26030T   26257.98398148  .00006221  00000+0  81444-3 0  2573
2 67781  51.8951  63.5502 0000649 109.7458 128.6554 14.79918118    15

Отслеживайте KUIPER-00220 в реальном времени с AllMySat

Download on the App Store